DW5852 Weather Reports


Display with metric or nautical units.
time (UTC)temp
F
wind
direction
speed
MPH
gust
MPH
rain 1hr
in
rain 24hr
in
rain mn
in
humidity
%
barometer
mb
20200809110248 69 293 0.0 0.0 0.00 0.00 0.00 28 1039.4
20200809105748 69 295 0.0 0.0 0.00 0.00 0.00 29 1039.3
20200809105248 69 293 0.0 0.0 0.00 0.00 0.00 29 1039.4
20200809104749 69 258 0.0 0.0 0.00 0.00 0.00 29 1039.4
20200809104248 69 259 0.0 0.0 0.00 0.00 0.00 29 1039.3
20200809103748 69 263 0.0 0.0 0.00 0.00 0.00 29 1039.3
20200809103248 69 293 0.0 0.0 0.00 0.00 0.00 29 1039.4
20200809102748 69 276 0.0 0.0 0.00 0.00 0.00 29 1039.5
20200809102248 69 283 0.0 0.0 0.00 0.00 0.00 29 1039.5
20200809101748 68 281 0.0 0.0 0.00 0.00 0.00 30 1039.5
20200809101248 69 302 0.0 0.0 0.00 0.00 0.00 29 1039.6
20200809100748 69 300 0.0 0.0 0.00 0.00 0.00 29 1039.6
20200809100248 69 289 0.0 0.0 0.00 0.00 0.00 29 1039.6
20200809095748 69 290 0.0 0.0 0.00 0.00 0.00 29 1039.5
20200809095248 69 286 0.0 0.0 0.00 0.00 0.00 29 1039.6
20200809094748 68 283 0.0 0.0 0.00 0.00 0.00 29 1039.6
20200809094248 69 284 0.0 0.0 0.00 0.00 0.00 29 1039.7
20200809093748 69 314 0.0 0.0 0.00 0.00 0.00 29 1039.6
20200809093248 69 328 0.0 0.0 0.00 0.00 0.00 29 1039.6
20200809092748 69 343 0.0 0.0 0.00 0.00 0.00 28 1039.7
20200809092249 69 359 0.0 0.0 0.00 0.00 0.00 29 1039.7
20200809091248 69 359 0.0 0.0 0.00 0.00 0.00 29 1039.8
20200809090748 69 308 0.0 0.0 0.00 0.00 0.00 29 1039.8
20200809090248 69 300 0.0 0.0 0.00 0.00 0.00 29 1039.8
20200809085748 69 297 0.0 0.0 0.00 0.00 0.00 29 1039.8
20200809085248 69 284 0.0 1.0 0.00 0.00 0.00 30 1039.9
20200809084748 68 262 0.0 0.0 0.00 0.00 0.00 29 1039.9
20200809084248 68 262 0.0 0.0 0.00 0.00 0.00 30 1040.0
20200809083748 68 262 0.0 1.0 0.00 0.00 0.00 30 1040.0
20200809083248 68 340 0.0 1.0 0.00 0.00 0.00 30 1040.0
20200809082748 69 278 0.0 0.0 0.00 0.00 0.00 29 1040.0
20200809082248 69 276 0.0 0.0 0.00 0.00 0.00 29 1040.0
20200809081748 68 273 0.0 0.0 0.00 0.00 0.00 30 1040.1
20200809081248 68 273 0.0 1.0 0.00 0.00 0.00 30 1040.1
20200809080748 68 250 0.0 1.0 0.00 0.00 0.00 30 1040.2
20200809080248 68 256 0.0 0.0 0.00 0.00 0.00 30 1040.2
20200809075748 69 268 0.0 1.0 0.00 0.00 0.00 30 1040.3
20200809075248 68 266 0.0 1.0 0.00 0.00 0.00 30 1040.3
20200809074750 68 243 0.0 1.0 0.00 0.00 0.00 30 1040.4
20200809074248 69 250 0.0 1.0 0.00 0.00 0.00 30 1040.5
20200809073748 69 250 0.0 1.0 0.00 0.00 0.00 30 1040.5
20200809073248 69 276 0.0 1.0 0.00 0.00 0.00 30 1040.6
20200809072748 69 259 0.0 1.0 0.00 0.00 0.00 30 1040.6
20200809072248 69 245 0.0 1.0 0.00 0.00 0.00 30 1040.7
20200809071748 69 269 0.0 0.0 0.00 0.00 0.00 29 1040.8
20200809071315 68 221 0.0 0.0 0.00 0.00 0.00 29 1040.9
20200809070748 69 221 0.0 0.0 0.00 0.00 0.00 29 1041.0
20200809070249 69 221 0.0 0.0 0.00 0.00 0.00 28 1041.1
20200809065748 69 136 0.0 0.0 0.00 0.00 0.00 27 1041.2
20200809065248 70 137 0.0 0.0 0.00 0.00 0.00 27 1041.3
20200809064748 70 136 0.0 0.0 0.00 0.00 0.00 27 1041.3
20200809064248 70 129 0.0 1.0 0.00 0.00 0.00 27 1041.2
20200809063748 70 41 0.0 2.0 0.00 0.00 0.00 27 1041.2
20200809063248 70 342 2.0 3.0 0.00 0.00 0.00 27 1041.3
20200809062748 70 335 2.0 4.0 0.00 0.00 0.00 27 1041.3
20200809062249 71 39 0.0 3.0 0.00 0.00 0.00 27 1041.2
20200809061748 71 104 0.0 7.0 0.00 0.00 0.00 27 1041.3
20200809061248 71 98 0.0 1.0 0.00 0.00 0.00 28 1041.3
20200809060749 71 82 0.0 3.0 0.00 0.00 0.00 28 1041.3
20200809060248 71 96 1.0 6.0 0.00 0.00 0.00 28 1041.2
20200809055748 72 239 0.0 3.0 0.00 0.00 0.00 28 1041.2
20200809055248 72 325 2.0 6.0 0.00 0.00 0.00 28 1041.0
20200809054748 72 238 4.0 4.0 0.00 0.00 0.00 28 1041.0
20200809054248 72 252 2.0 7.0 0.00 0.00 0.00 28 1041.0
20200809053748 72 276 0.0 8.0 0.00 0.00 0.00 28 1041.0
20200809053248 72 329 1.0 8.0 0.00 0.00 0.00 28 1041.1
20200809052748 72 271 2.0 6.0 0.00 0.00 0.00 28 1041.1
20200809052248 72 286 3.0 13.0 0.00 0.00 0.00 27 1041.1
20200809051748 73 225 3.0 10.0 0.00 0.00 0.00 27 1041.1
20200809051248 73 243 10.0 11.0 0.00 0.00 0.00 26 1041.1
20200809050748 74 253 3.0 8.0 0.00 0.00 0.00 25 1041.1
20200809050248 74 222 1.0 9.0 0.00 0.00 0.00 24 1041.2
20200809045748 74 218 4.0 7.0 0.00 0.00 0.00 24 1041.2
20200809045248 75 295 6.0 12.0 0.00 0.00 0.00 23 1041.1
20200809044748 75 269 9.0 15.0 0.00 0.00 0.00 23 1041.1
20200809044248 75 259 5.0 14.0 0.00 0.00 0.00 23 1041.0
20200809043749 75 293 7.0 11.0 0.00 0.00 0.00 23 1041.1
20200809043248 75 248 0.0 6.0 0.00 0.00 0.00 23 1041.1
20200809042748 75 229 0.0 7.0 0.00 0.00 0.00 23 1041.1
20200809042248 74 252 1.0 5.0 0.00 0.00 0.00 23 1041.0
20200809041748 74 290 0.0 4.0 0.00 0.00 0.00 23 1041.1
20200809041248 74 276 0.0 8.0 0.00 0.00 0.00 23 1041.1
20200809040748 75 238 2.0 6.0 0.00 0.00 0.00 23 1041.1
20200809040248 75 221 0.0 5.0 0.00 0.00 0.00 23 1041.1
20200809035748 75 143 0.0 5.0 0.00 0.00 0.00 23 1041.1
20200809035248 75 233 3.0 7.0 0.00 0.00 0.00 23 1041.1
20200809034748 75 310 2.0 7.0 0.00 0.00 0.00 23 1041.0
20200809034248 75 309 1.0 11.0 0.00 0.00 0.00 23 1041.0
20200809033748 75 252 2.0 8.0 0.00 0.00 0.00 23 1041.0
20200809033248 75 261 2.0 10.0 0.00 0.00 0.00 23 1041.0
20200809032748 75 276 0.0 7.0 0.00 0.00 0.00 23 1041.0
20200809032248 75 226 3.0 7.0 0.00 0.00 0.00 23 1040.9
20200809031748 75 278 0.0 7.0 0.00 0.00 0.00 23 1040.9
20200809031248 75 273 0.0 8.0 0.00 0.00 0.00 23 1040.9
20200809030748 75 256 0.0 9.0 0.00 0.00 0.00 22 1040.8
20200809030248 75 218 0.0 7.0 0.00 0.00 0.00 22 1040.7
20200809025748 75 232 0.0 3.0 0.00 0.00 0.00 22 1040.7
20200809025248 75 256 3.0 6.0 0.00 0.00 0.00 22 1040.5
20200809024748 75 235 0.0 4.0 0.00 0.00 0.00 22 1040.5
20200809024248 76 235 0.0 4.0 0.00 0.00 0.00 21 1040.4
20200809023748 76 253 0.0 3.0 0.00 0.00 0.00 21 1040.3
20200809023249 76 252 1.0 3.0 0.00 0.00 0.00 22 1040.3
20200809022748 76 245 0.0 2.0 0.00 0.00 0.00 23 1040.3
20200809022248 76 238 0.0 2.0 0.00 0.00 0.00 23 1040.2
20200809021748 76 235 0.0 1.0 0.00 0.00 0.00 24 1040.1
20200809021248 76 240 0.0 2.0 0.00 0.00 0.00 23 1040.1
20200809020748 77 243 0.0 0.0 0.00 0.00 0.00 23 1040.1
20200809020248 77 233 0.0 0.0 0.00 0.00 0.00 22 1039.9
20200809015748 78 335 0.0 0.0 0.00 0.00 0.00 22 1039.9
20200809015248 79 348 0.0 0.0 0.00 0.00 0.00 21 1039.9
20200809014748 80 352 0.0 0.0 0.00 0.00 0.00 20 1039.9
20200809014248 82 353 0.0 0.0 0.00 0.00 0.00 20 1039.8
20200809013748 83 353 0.0 0.0 0.00 0.00 0.00 18 1039.7
20200809013248 83 353 0.0 0.0 0.00 0.00 0.00 18 1039.6
20200809012748 82 352 0.0 0.0 0.00 0.00 0.00 19 1039.5
20200809012248 81 353 0.0 0.0 0.00 0.00 0.00 19 1039.5
20200809011748 81 353 0.0 1.0 0.00 0.00 0.00 19 1039.4
20200809011248 80 346 0.0 1.0 0.00 0.00 0.00 19 1039.3
20200809010748 79 353 0.0 0.0 0.00 0.00 0.00 21 1039.3
20200809010248 79 359 0.0 0.0 0.00 0.00 0.00 20 1039.2
20200809005748 79 0 0.0 0.0 0.00 0.00 0.00 21 1039.2
20200809005248 79 0 0.0 0.0 0.00 0.00 0.00 20 1039.1
20200809004748 80 20 0.0 1.0 0.00 0.00 0.00 20 1039.0
20200809004248 80 25 0.0 1.0 0.00 0.00 0.00 20 1039.0
20200809003748 80 70 0.0 0.0 0.00 0.00 0.00 21 1039.0
20200809003248 80 70 0.0 1.0 0.00 0.00 0.00 19 1039.0
20200809002748 80 18 0.0 2.0 0.00 0.00 0.00 19 1039.0
20200809002248 80 100 0.0 1.0 0.00 0.00 0.00 20 1038.9
20200809001748 81 30 0.0 1.0 0.00 0.00 0.00 19 1038.9
20200809001248 81 39 0.0 4.0 0.00 0.00 0.00 20 1039.0
20200809000753 81 58 0.0 4.0 0.00 0.00 0.00 20 1038.9
20200809000248 81 359 5.0 5.0 0.00 0.00 0.00 19 1038.9
20200808235748 81 12 0.0 3.0 0.00 0.00 0.00 20 1038.8
20200808235248 81 48 0.0 1.0 0.00 0.00 0.00 21 1038.7
20200808234748 81 52 0.0 0.0 0.00 0.00 0.00 22 1038.7
20200808234248 80 345 0.0 3.0 0.00 0.00 0.00 21 1038.8
20200808233748 80 11 0.0 4.0 0.00 0.00 0.00 22 1038.7
20200808233248 80 355 0.0 3.0 0.00 0.00 0.00 22 1038.7
20200808232748 80 73 0.0 1.0 0.00 0.00 0.00 23 1038.7
20200808232248 80 357 0.0 2.0 0.00 0.00 0.00 23 1038.7
20200808231748 80 338 1.0 2.0 0.00 0.00 0.00 23 1038.7
20200808231248 80 333 0.0 1.0 0.00 0.00 0.00 25 1038.6
20200808230748 80 336 0.0 2.0 0.00 0.00 0.00 24 1038.6
20200808230248 80 50 0.0 2.0 0.00 0.00 0.00 23 1038.6
20200808225748 80 352 1.0 2.0 0.00 0.00 0.00 23 1038.6
20200808225248 80 38 0.0 3.0 0.00 0.00 0.00 23 1038.5
20200808224748 80 30 0.0 5.0 0.00 0.00 0.00 23 1038.4
20200808224248 80 14 5.0 6.0 0.00 0.00 0.00 23 1038.3
20200808223748 80 50 0.0 7.0 0.00 0.00 0.00 22 1038.3
20200808223248 81 22 1.0 6.0 0.00 0.00 0.00 22 1038.2
20200808222748 81 41 2.0 7.0 0.00 0.00 0.00 22 1038.2
20200808222248 82 333 2.0 9.0 0.00 0.00 0.00 22 1038.1
20200808221748 82 65 2.0 6.0 0.00 0.00 0.00 23 1038.1
20200808221248 82 79 1.0 10.0 0.00 0.00 0.00 22 1038.1
20200808220748 83 300 3.0 8.0 0.00 0.00 0.00 21 1038.2
20200808220248 83 26 5.0 10.0 0.00 0.00 0.00 21 1038.2
20200808215748 82 23 7.0 10.0 0.00 0.00 0.00 22 1038.2
20200808215249 82 321 1.0 11.0 0.00 0.00 0.00 23 1038.2
20200808214748 82 63 5.0 13.0 0.00 0.00 0.00 24 1038.1
20200808214248 82 328 6.0 14.0 0.00 0.00 0.00 23 1038.1
20200808213748 82 84 6.0 17.0 0.00 0.00 0.00 25 1038.1
20200808213248 81 30 8.0 8.0 0.00 0.00 0.00 25 1038.1
20200808212748 79 341 2.0 5.0 0.00 0.00 0.00 26 1038.2
20200808212248 79 287 5.0 4.0 0.00 0.00 0.00 26 1038.0
20200808211748 79 345 0.0 9.0 0.00 0.00 0.00 27 1037.9
20200808211248 80 319 5.0 8.0 0.00 0.00 0.00 24 1037.9
20200808210748 81 316 1.0 11.0 0.00 0.00 0.00 21 1037.7
20200808210248 83 330 4.0 7.0 0.00 0.00 0.00 20 1037.6
20200808205748 82 30 0.0 18.0 0.00 0.00 0.00 22 1037.8
20200808205248 81 258 18.0 19.0 0.00 0.00 0.00 23 1037.8
20200808204748 81 343 8.0 10.0 0.00 0.00 0.00 25 1037.8
20200808204248 80 332 1.0 8.0 0.00 0.00 0.00 26 1037.7
20200808203748 80 30 2.0 10.0 0.00 0.00 0.00 24 1037.7
20200808203248 80 75 5.0 8.0 0.00 0.00 0.00 24 1037.6
20200808202748 80 359 5.0 13.0 0.00 0.00 0.00 25 1037.5
20200808202248 80 288 4.0 15.0 0.00 0.00 0.00 24 1037.4
20200808201748 82 333 13.0 13.0 0.00 0.00 0.00 22 1037.5
20200808201248 83 8 3.0 9.0 0.00 0.00 0.00 22 1037.6
20200808200748 84 69 5.0 6.0 0.00 0.00 0.00 22 1037.6
20200808200248 84 16 6.0 6.0 0.00 0.00 0.00 22 1037.5
20200808195749 85 357 0.0 11.0 0.00 0.00 0.00 22 1037.5
20200808195248 85 294 0.0 8.0 0.00 0.00 0.00 22 1037.4
20200808194748 86 304 4.0 8.0 0.00 0.00 0.00 21 1037.5
20200808194248 86 138 0.0 6.0 0.00 0.00 0.00 22 1037.4
20200808193748 86 122 0.0 6.0 0.00 0.00 0.00 22 1037.5
20200808193248 85 240 2.0 8.0 0.00 0.00 0.00 23 1037.4
20200808192748 85 232 2.0 10.0 0.00 0.00 0.00 23 1037.5
20200808192248 86 181 2.0 11.0 0.00 0.00 0.00 22 1037.5
20200808191748 86 143 6.0 9.0 0.00 0.00 0.00 23 1037.4
20200808191248 85 243 0.0 8.0 0.00 0.00 0.00 23 1037.5
20200808190748 85 163 4.0 9.0 0.00 0.00 0.00 23 1037.5
20200808190248 84 174 0.0 7.0 0.00 0.00 0.00 23 1037.5
20200808185748 84 253 5.0 9.0 0.00 0.00 0.00 23 1037.5
20200808185248 84 117 1.0 10.0 0.00 0.00 0.00 24 1037.5
20200808184749 84 188 0.0 6.0 0.00 0.00 0.00 23 1037.6
20200808184248 85 193 4.0 8.0 0.00 0.00 0.00 23 1037.5
20200808183748 84 172 1.0 5.0 0.00 0.00 0.00 23 1037.5
20200808183249 84 155 2.0 5.0 0.00 0.00 0.00 24 1037.6
20200808182748 84 101 5.0 7.0 0.00 0.00 0.00 24 1037.6
20200808182248 83 107 7.0 8.0 0.00 0.00 0.00 25 1037.6
20200808181748 82 183 0.0 2.0 0.00 0.00 0.00 25 1037.6
20200808181248 81 85 3.0 6.0 0.00 0.00 0.00 25 1037.7
20200808180748 82 355 0.0 6.0 0.00 0.00 0.00 26 1037.7
20200808180248 82 324 2.0 4.0 0.00 0.00 0.00 25 1037.6
20200808175748 81 33 1.0 5.0 0.00 0.00 0.00 26 1037.6
20200808175248 80 126 2.0 7.0 0.00 0.00 0.00 27 1037.5
20200808174748 80 86 4.0 9.0 0.00 0.00 0.00 27 1037.6
20200808174248 80 83 5.0 9.0 0.00 0.00 0.00 27 1037.6
20200808173748 80 71 5.0 11.0 0.00 0.00 0.00 27 1037.5
20200808173248 81 67 9.0 12.0 0.00 0.00 0.00 26 1037.5
20200808172748 80 77 6.0 7.0 0.00 0.00 0.00 27 1037.6
20200808172248 79 279 1.0 2.0 0.00 0.00 0.00 28 1037.6
20200808171748 79 86 0.0 6.0 0.00 0.00 0.00 27 1037.7
20200808171248 80 64 4.0 5.0 0.00 0.00 0.00 28 1037.6
20200808170748 79 148 0.0 4.0 0.00 0.00 0.00 28 1037.6
20200808170248 79 68 0.0 3.0 0.00 0.00 0.00 29 1037.7
20200808165748 78 219 0.0 8.0 0.00 0.00 0.00 30 1037.7
20200808165248 77 73 3.0 6.0 0.00 0.00 0.00 31 1037.7
20200808164748 77 98 2.0 8.0 0.00 0.00 0.00 30 1037.6
20200808164248 76 124 0.0 4.0 0.00 0.00 0.00 32 1037.5
20200808163748 75 86 1.0 8.0 0.00 0.00 0.00 32 1037.6
20200808163248 75 97 0.0 9.0 0.00 0.00 0.00 32 1037.6
20200808162748 75 89 6.0 7.0 0.00 0.00 0.00 33 1037.5
20200808162248 75 71 3.0 8.0 0.00 0.00 0.00 32 1037.6
20200808161748 75 126 5.0 9.0 0.00 0.00 0.00 32 1037.5
20200808161248 75 113 2.0 8.0 0.00 0.00 0.00 33 1037.4
20200808160748 75 69 4.0 10.0 0.00 0.00 0.00 32 1037.4
20200808160248 76 58 3.0 11.0 0.00 0.00 0.00 31 1037.4
20200808155748 78 169 0.0 10.0 0.00 0.00 0.00 29 1037.3
20200808155248 78 111 0.0 5.0 0.00 0.00 0.00 30 1037.3
20200808154748 78 72 3.0 3.0 0.00 0.00 0.00 29 1037.2
20200808154248 78 96 0.0 4.0 0.00 0.00 0.00 30 1037.2
20200808153748 78 128 0.0 3.0 0.00 0.00 0.00 31 1037.3
20200808153248 77 150 0.0 2.0 0.00 0.00 0.00 31 1037.3
20200808152748 76 94 0.0 3.0 0.00 0.00 0.00 32 1037.3
20200808152248 76 116 3.0 2.0 0.00 0.00 0.00 32 1037.3
20200808151748 75 151 0.0 2.0 0.00 0.00 0.00 32 1037.4
20200808151248 75 84 2.0 2.0 0.00 0.00 0.00 33 1037.4
20200808150748 73 212 0.0 2.0 0.00 0.00 0.00 34 1037.4
20200808150248 73 55 0.0 5.0 0.00 0.00 0.00 34 1037.5
20200808145748 73 109 5.0 5.0 0.00 0.00 0.00 35 1037.5
20200808145248 73 103 2.0 5.0 0.00 0.00 0.00 34 1037.5
20200808144748 73 61 1.0 4.0 0.00 0.00 0.00 34 1037.5
20200808144248 73 145 0.0 3.0 0.00 0.00 0.00 35 1037.5
20200808143748 72 356 3.0 4.0 0.00 0.00 0.00 34 1037.6
20200808143248 72 70 2.0 4.0 0.00 0.00 0.00 35 1037.5
20200808142748 71 82 0.0 4.0 0.00 0.00 0.00 36 1037.5
20200808142248 71 67 0.0 1.0 0.00 0.00 0.00 36 1037.5
20200808141748 70 94 0.0 4.0 0.00 0.00 0.00 37 1037.5
20200808141248 70 79 2.0 4.0 0.00 0.00 0.00 36 1037.4
20200808140748 70 50 0.0 3.0 0.00 0.00 0.00 35 1037.4
20200808140248 71 58 0.0 2.0 0.00 0.00 0.00 35 1037.4
20200808135748 70 61 2.0 2.0 0.00 0.00 0.00 36 1037.5
20200808135248 70 79 0.0 2.0 0.00 0.00 0.00 36 1037.4
20200808134748 70 74 0.0 1.0 0.00 0.00 0.00 36 1037.3
20200808134248 70 9 0.0 1.0 0.00 0.00 0.00 36 1037.3
20200808133748 69 309 0.0 0.0 0.00 0.00 0.00 38 1037.4
20200808133248 68 309 0.0 0.0 0.00 0.00 0.00 38 1037.4
20200808132748 68 308 0.0 0.0 0.00 0.00 0.00 39 1037.4
20200808132248 66 302 0.0 0.0 0.00 0.00 0.00 40 1037.6
20200808131748 66 302 0.0 0.0 0.00 0.00 0.00 41 1037.6
20200808131248 66 302 0.0 0.0 0.00 0.00 0.00 40 1037.5
20200808130748 66 281 0.0 0.0 0.00 0.00 0.00 40 1037.6
20200808130248 67 358 0.0 1.0 0.00 0.00 0.00 38 1037.6
20200808125748 67 53 0.0 1.0 0.00 0.00 0.00 38 1037.5
20200808125248 67 355 0.0 1.0 0.00 0.00 0.00 38 1037.5
20200808124748 66 355 0.0 1.0 0.00 0.00 0.00 39 1037.5
20200808124248 66 352 0.0 1.0 0.00 0.00 0.00 39 1037.5
20200808123748 65 281 0.0 0.0 0.00 0.00 0.00 40 1037.6
20200808123248 64 281 0.0 1.0 0.00 0.00 0.00 41 1037.6
20200808122748 64 281 0.0 1.0 0.00 0.00 0.00 41 1037.6
20200808122248 64 278 0.0 1.0 0.00 0.00 0.00 42 1037.5
20200808121748 64 209 0.0 1.0 0.00 0.00 0.00 42 1037.6
20200808121248 64 218 0.0 0.0 0.00 0.00 0.00 42 1037.7
20200808120748 63 218 0.0 0.0 0.00 0.00 0.00 42 1037.7
20200808120248 62 188 0.0 0.0 0.00 0.00 0.00 44 1037.7
20200808115748 62 188 0.0 0.0 0.00 0.00 0.00 43 1037.7
20200808115248 62 189 0.0 0.0 0.00 0.00 0.00 44 1037.7
20200808114748 63 188 0.0 0.0 0.00 0.00 0.00 43 1037.6
20200808114248 63 188 0.0 0.0 0.00 0.00 0.00 44 1037.7
20200808113748 63 188 0.0 0.0 0.00 0.00 0.00 43 1037.7
20200808113248 63 188 0.0 0.0 0.00 0.00 0.00 43 1037.6
20200808112748 63 43 0.0 0.0 0.00 0.00 0.00 45 1037.5
20200808112248 63 43 0.0 0.0 0.00 0.00 0.00 44 1037.5
20200808111748 63 43 0.0 0.0 0.00 0.00 0.00 42 1037.5
20200808111248 63 43 0.0 0.0 0.00 0.00 0.00 43 1037.6
20200808110748 63 43 0.0 0.0 0.00 0.00 0.00 42 1037.6